owner,sensor,date,latitude,longitude,vertical_datum,sea_water_practical_salinity,qcFlag 
SCCF RECON,ioos:station:SCCF:51:1,2010-02-01T00:00:00Z,26.5545,-82.1715,1.569,33.32,1111122 
SCCF RECON,ioos:station:SCCF:51:1,2010-02-01T01:00:00Z,26.5545,-82.1715,1.535,33.3,1111122 
SCCF RECON,ioos:station:SCCF:51:1,2010-02-01T02:00:00Z,26.5545,-82.1715,1.582,33.39,1111122 
SCCF RECON,ioos:station:SCCF:51:1,2010-02-01T03:00:00Z,26.5545,-82.1715,1.68,33.58,1111122 
SCCF RECON,ioos:station:SCCF:51:1,2010-02-01T04:00:00Z,26.5545,-82.1715,1.823,34.05,1111122 
SCCF RECON,ioos:station:SCCF:51:1,2010-02-01T05:00:00Z,26.5545,-82.1715,1.973,34.37,1111122 
SCCF RECON,ioos:station:SCCF:51:1,2010-02-01T06:00:00Z,26.5545,-82.1715,2.076,34.26,1111122 
SCCF RECON,ioos:station:SCCF:51:1,2010-02-01T07:00:00Z,26.5545,-82.1715,2.124,34.18,1111122 
SCCF RECON,ioos:station:SCCF:51:1,2010-02-01T08:00:00Z,26.5545,-82.1715,2.083,34.22,1111122 
SCCF RECON,ioos:station:SCCF:51:1,2010-02-01T09:00:00Z,26.5545,-82.1715,1.986,34.1,1111122 
SCCF RECON,ioos:station:SCCF:51:1,2010-02-01T10:00:00Z,26.5545,-82.1715,1.854,33.59,1111122 
SCCF RECON,ioos:station:SCCF:51:1,2010-02-01T11:00:00Z,26.5545,-82.1715,1.721,33.43,1111122 
SCCF RECON,ioos:station:SCCF:51:1,2010-02-01T12:00:00Z,26.5545,-82.1715,1.602,33.33,1111122 
SCCF RECON,ioos:station:SCCF:51:1,2010-02-01T13:00:00Z,26.5545,-82.1715,1.506,33.3,1111122 
SCCF RECON,ioos:station:SCCF:51:1,2010-02-01T14:00:00Z,26.5545,-82.1715,1.444,33.29,1111122 
SCCF RECON,ioos:station:SCCF:51:1,2010-02-01T15:00:00Z,26.5545,-82.1715,1.499,33.32,1111122 
SCCF RECON,ioos:station:SCCF:51:1,2010-02-01T16:00:00Z,26.5545,-82.1715,1.594,33.5,1111122 
SCCF RECON,ioos:station:SCCF:51:1,2010-02-01T17:00:00Z,26.5545,-82.1715,1.745,33.8,1111122 
SCCF RECON,ioos:station:SCCF:51:1,2010-02-01T18:00:00Z,26.5545,-82.1715,1.884,34.24,1111122 
SCCF RECON,ioos:station:SCCF:51:1,2010-02-01T19:00:00Z,26.5545,-82.1715,1.969,34.22,1111122 
SCCF RECON,ioos:station:SCCF:51:1,2010-02-01T20:00:00Z,26.5545,-82.1715,1.988,34.14,1111122 
SCCF RECON,ioos:station:SCCF:51:1,2010-02-01T21:00:00Z,26.5545,-82.1715,1.946,33.91,1111122 
SCCF RECON,ioos:station:SCCF:51:1,2010-02-01T22:00:00Z,26.5545,-82.1715,1.875,33.43,1111122 
SCCF RECON,ioos:station:SCCF:51:1,2010-02-01T23:00:00Z,26.5545,-82.1715,1.79,33.43,1111122 
SCCF RECON,ioos:station:SCCF:51:1,2010-02-02T00:00:00Z,26.5545,-82.1715,1.69,33.35,1111122 
SCCF RECON,ioos:station:SCCF:51:1,2010-02-02T01:00:00Z,26.5545,-82.1715,1.62,33.4,1111122 
SCCF RECON,ioos:station:SCCF:51:1,2010-02-02T02:00:00Z,26.5545,-82.1715,1.609,33.49,1111122 
SCCF RECON,ioos:station:SCCF:51:1,2010-02-02T03:00:00Z,26.5545,-82.1715,1.668,33.35,1111122 
SCCF RECON,ioos:station:SCCF:51:1,2010-02-02T04:00:00Z,26.5545,-82.1715,1.768,33.42,1111122 
SCCF RECON,ioos:station:SCCF:51:1,2010-02-02T05:00:00Z,26.5545,-82.1715,1.911,34.04,1111122 
SCCF RECON,ioos:station:SCCF:51:1,2010-02-02T06:00:00Z,26.5545,-82.1715,2.04,34.21,1111122 
SCCF RECON,ioos:station:SCCF:51:1,2010-02-02T07:00:00Z,26.5545,-82.1715,2.1,34.14,1111122 
SCCF RECON,ioos:station:SCCF:51:1,2010-02-02T08:00:00Z,26.5545,-82.1715,2.08,33.96,1111122 
SCCF RECON,ioos:station:SCCF:51:1,2010-02-02T09:00:00Z,26.5545,-82.1715,2.02,34.04,1111122 
SCCF RECON,ioos:station:SCCF:51:1,2010-02-02T10:00:00Z,26.5545,-82.1715,1.93,34.02,1111122 
SCCF RECON,ioos:station:SCCF:51:1,2010-02-02T11:00:00Z,26.5545,-82.1715,1.83,33.8,1111122 
SCCF RECON,ioos:station:SCCF:51:1,2010-02-02T12:00:00Z,26.5545,-82.1715,1.72,33.59,1111122 
SCCF RECON,ioos:station:SCCF:51:1,2010-02-02T13:00:00Z,26.5545,-82.1715,1.63,33.36,1111122 
SCCF RECON,ioos:station:SCCF:51:1,2010-02-02T14:00:00Z,26.5545,-82.1715,1.55,33.15,1111122 
SCCF RECON,ioos:station:SCCF:51:1,2010-02-02T15:00:00Z,26.5545,-82.1715,1.55,33.13,1111122 
SCCF RECON,ioos:station:SCCF:51:1,2010-02-02T16:00:00Z,26.5545,-82.1715,1.633,33.41,1111122 
SCCF RECON,ioos:station:SCCF:51:1,2010-02-02T17:00:00Z,26.5545,-82.1715,1.765,33.59,1111122 
SCCF RECON,ioos:station:SCCF:51:1,2010-02-02T18:00:00Z,26.5545,-82.1715,1.936,34.01,1111122 
SCCF RECON,ioos:station:SCCF:51:1,2010-02-02T19:00:00Z,26.5545,-82.1715,2.06,34.07,1111122 
SCCF RECON,ioos:station:SCCF:51:1,2010-02-02T20:00:00Z,26.5545,-82.1715,2.09,33.99,1111122 
SCCF RECON,ioos:station:SCCF:51:1,2010-02-02T21:00:00Z,26.5545,-82.1715,2.08,34.08,1111122 
SCCF RECON,ioos:station:SCCF:51:1,2010-02-02T22:00:00Z,26.5545,-82.1715,2.03,33.85,1111122 
SCCF RECON,ioos:station:SCCF:51:1,2010-02-02T23:00:00Z,26.5545,-82.1715,1.943,33.3,1111122 
SCCF RECON,ioos:station:SCCF:51:1,2010-02-03T00:00:00Z,26.5545,-82.1715,1.82,32.69,1111122 
SCCF RECON,ioos:station:SCCF:51:1,2010-02-03T01:00:00Z,26.5545,-82.1715,1.706,32.52,1111122 
SCCF RECON,ioos:station:SCCF:51:1,2010-02-03T02:00:00Z,26.5545,-82.1715,1.619,32.49,1111122 
SCCF RECON,ioos:station:SCCF:51:1,2010-02-03T03:00:00Z,26.5545,-82.1715,1.588,32.64,1111122 
SCCF RECON,ioos:station:SCCF:51:1,2010-02-03T04:00:00Z,26.5545,-82.1715,1.63,32.91,1111122 
SCCF RECON,ioos:station:SCCF:51:1,2010-02-03T05:00:00Z,26.5545,-82.1715,1.71,33.16,1111122 
SCCF RECON,ioos:station:SCCF:51:1,2010-02-03T06:00:00Z,26.5545,-82.1715,1.819,33.14,1111122 
SCCF RECON,ioos:station:SCCF:51:1,2010-02-03T07:00:00Z,26.5545,-82.1715,1.915,33.76,1111122 
SCCF RECON,ioos:station:SCCF:51:1,2010-02-03T08:00:00Z,26.5545,-82.1715,1.959,34.11,1111122 
SCCF RECON,ioos:station:SCCF:51:1,2010-02-03T09:00:00Z,26.5545,-82.1715,1.93,33.58,1111122 
SCCF RECON,ioos:station:SCCF:51:1,2010-02-03T10:00:00Z,26.5545,-82.1715,1.883,33.28,1111122 
SCCF RECON,ioos:station:SCCF:51:1,2010-02-03T11:00:00Z,26.5545,-82.1715,1.815,33.18,1111122 
SCCF RECON,ioos:station:SCCF:51:1,2010-02-03T12:00:00Z,26.5545,-82.1715,1.737,33.2,1111122 
SCCF RECON,ioos:station:SCCF:51:1,2010-02-03T13:00:00Z,26.5545,-82.1715,1.639,32.94,1111122 
SCCF RECON,ioos:station:SCCF:51:1,2010-02-03T14:00:00Z,26.5545,-82.1715,1.571,32.9,1111122 
SCCF RECON,ioos:station:SCCF:51:1,2010-02-03T15:00:00Z,26.5545,-82.1715,1.532,32.93,1111122 
SCCF RECON,ioos:station:SCCF:51:1,2010-02-03T16:00:00Z,26.5545,-82.1715,1.574,32.93,1111122 
SCCF RECON,ioos:station:SCCF:51:1,2010-02-03T17:00:00Z,26.5545,-82.1715,1.658,33.17,1111122 
SCCF RECON,ioos:station:SCCF:51:1,2010-02-03T18:00:00Z,26.5545,-82.1715,1.786,33.48,1111122 
SCCF RECON,ioos:station:SCCF:51:1,2010-02-03T19:00:00Z,26.5545,-82.1715,1.902,33.76,1111122 
SCCF RECON,ioos:station:SCCF:51:1,2010-02-03T20:00:00Z,26.5545,-82.1715,1.981,33.48,1111122 
SCCF RECON,ioos:station:SCCF:51:1,2010-02-03T21:00:00Z,26.5545,-82.1715,2.022,33.84,1111122 
SCCF RECON,ioos:station:SCCF:51:1,2010-02-03T22:00:00Z,26.5545,-82.1715,1.982,33.73,1111122 
SCCF RECON,ioos:station:SCCF:51:1,2010-02-03T23:00:00Z,26.5545,-82.1715,1.922,33.27,1111122 
SCCF RECON,ioos:station:SCCF:51:1,2010-02-04T00:00:00Z,26.5545,-82.1715,1.848,32.99,1111122 
SCCF RECON,ioos:station:SCCF:51:1,2010-02-04T01:00:00Z,26.5545,-82.1715,1.74,32.97,1111122 
SCCF RECON,ioos:station:SCCF:51:1,2010-02-04T02:00:00Z,26.5545,-82.1715,1.626,32.88,1111122 
SCCF RECON,ioos:station:SCCF:51:1,2010-02-04T03:00:00Z,26.5545,-82.1715,1.546,32.96,1111122 
SCCF RECON,ioos:station:SCCF:51:1,2010-02-04T04:00:00Z,26.5545,-82.1715,1.506,32.9,1111122 
SCCF RECON,ioos:station:SCCF:51:1,2010-02-04T05:00:00Z,26.5545,-82.1715,1.525,32.93,1111122 
SCCF RECON,ioos:station:SCCF:51:1,2010-02-04T06:00:00Z,26.5545,-82.1715,1.601,33.09,1111122 
SCCF RECON,ioos:station:SCCF:51:1,2010-02-04T07:00:00Z,26.5545,-82.1715,1.712,33.12,1111122 
SCCF RECON,ioos:station:SCCF:51:1,2010-02-04T08:00:00Z,26.5545,-82.1715,1.788,33.4,1111122 
SCCF RECON,ioos:station:SCCF:51:1,2010-02-04T09:00:00Z,26.5545,-82.1715,1.798,33.46,1111122 
SCCF RECON,ioos:station:SCCF:51:1,2010-02-04T10:00:00Z,26.5545,-82.1715,1.784,33.32,1111122 
SCCF RECON,ioos:station:SCCF:51:1,2010-02-04T11:00:00Z,26.5545,-82.1715,1.771,33.11,1111122 
SCCF RECON,ioos:station:SCCF:51:1,2010-02-04T12:00:00Z,26.5545,-82.1715,1.756,32.95,1111122 
SCCF RECON,ioos:station:SCCF:51:1,2010-02-04T13:00:00Z,26.5545,-82.1715,1.724,32.75,1111122 
SCCF RECON,ioos:station:SCCF:51:1,2010-02-04T14:00:00Z,26.5545,-82.1715,1.674,32.6,1111122 
SCCF RECON,ioos:station:SCCF:51:1,2010-02-04T15:00:00Z,26.5545,-82.1715,1.658,32.67,1111122 
SCCF RECON,ioos:station:SCCF:51:1,2010-02-04T16:00:00Z,26.5545,-82.1715,1.673,32.6,1111122 
SCCF RECON,ioos:station:SCCF:51:1,2010-02-04T18:00:00Z,26.5545,-82.1715,1.782,32.76,1111122 
SCCF RECON,ioos:station:SCCF:51:1,2010-02-04T19:00:00Z,26.5545,-82.1715,1.895,33.74,1111122 
SCCF RECON,ioos:station:SCCF:51:1,2010-02-04T20:00:00Z,26.5545,-82.1715,1.971,33.93,1111122 
SCCF RECON,ioos:station:SCCF:51:1,2010-02-04T21:00:00Z,26.5545,-82.1715,2.03,33.83,1111122 
SCCF RECON,ioos:station:SCCF:51:1,2010-02-04T22:00:00Z,26.5545,-82.1715,2.057,33.74,1111122 
SCCF RECON,ioos:station:SCCF:51:1,2010-02-04T23:00:00Z,26.5545,-82.1715,2.022,33.95,1111122 
SCCF RECON,ioos:station:SCCF:51:1,2010-02-05T00:00:00Z,26.5545,-82.1715,1.94,33.71,1111122 
SCCF RECON,ioos:station:SCCF:51:1,2010-02-05T01:00:00Z,26.5545,-82.1715,1.843,32.97,1111122 
SCCF RECON,ioos:station:SCCF:51:1,2010-02-05T02:00:00Z,26.5545,-82.1715,1.738,32.76,1111122 
SCCF RECON,ioos:station:SCCF:51:1,2010-02-05T03:00:00Z,26.5545,-82.1715,1.628,32.66,1111122 
SCCF RECON,ioos:station:SCCF:51:1,2010-02-05T04:00:00Z,26.5545,-82.1715,1.539,32.59,1111122 
SCCF RECON,ioos:station:SCCF:51:1,2010-02-05T05:00:00Z,26.5545,-82.1715,1.507,32.6,1111122 
SCCF RECON,ioos:station:SCCF:51:1,2010-02-05T06:00:00Z,26.5545,-82.1715,1.54,32.65,1111122 
SCCF RECON,ioos:station:SCCF:51:1,2010-02-05T07:00:00Z,26.5545,-82.1715,1.627,32.71,1111122 
SCCF RECON,ioos:station:SCCF:51:1,2010-02-05T08:00:00Z,26.5545,-82.1715,1.703,32.76,1111122 
SCCF RECON,ioos:station:SCCF:51:1,2010-02-05T09:00:00Z,26.5545,-82.1715,1.776,32.75,1111122 
SCCF RECON,ioos:station:SCCF:51:1,2010-02-05T10:00:00Z,26.5545,-82.1715,1.818,33.01,1111122 
SCCF RECON,ioos:station:SCCF:51:1,2010-02-05T11:00:00Z,26.5545,-82.1715,1.84,33.08,1111122 
SCCF RECON,ioos:station:SCCF:51:1,2010-02-05T12:00:00Z,26.5545,-82.1715,1.846,33.11,1111122 
SCCF RECON,ioos:station:SCCF:51:1,2010-02-05T13:00:00Z,26.5545,-82.1715,1.856,32.98,1111122 
SCCF RECON,ioos:station:SCCF:51:1,2010-02-05T14:00:00Z,26.5545,-82.1715,1.884,32.87,1111122 
SCCF RECON,ioos:station:SCCF:51:1,2010-02-05T15:00:00Z,26.5545,-82.1715,1.883,32.79,1111122 
SCCF RECON,ioos:station:SCCF:51:1,2010-02-05T16:00:00Z,26.5545,-82.1715,1.89,32.66,1111122 
SCCF RECON,ioos:station:SCCF:51:1,2010-02-05T17:00:00Z,26.5545,-82.1715,1.897,32.63,1111122 
SCCF RECON,ioos:station:SCCF:51:1,2010-02-05T18:00:00Z,26.5545,-82.1715,1.905,32.58,1111122 
SCCF RECON,ioos:station:SCCF:51:1,2010-02-05T19:00:00Z,26.5545,-82.1715,1.955,32.57,1111122 
SCCF RECON,ioos:station:SCCF:51:1,2010-02-05T20:00:00Z,26.5545,-82.1715,2.022,32.6,1111122 
SCCF RECON,ioos:station:SCCF:51:1,2010-02-05T21:00:00Z,26.5545,-82.1715,2.115,32.9,1111122 
SCCF RECON,ioos:station:SCCF:51:1,2010-02-05T22:00:00Z,26.5545,-82.1715,2.187,33.66,1111122 
SCCF RECON,ioos:station:SCCF:51:1,2010-02-05T23:00:00Z,26.5545,-82.1715,2.098,32.59,1111122 
SCCF RECON,ioos:station:SCCF:51:1,2010-02-06T00:00:00Z,26.5545,-82.1715,2.04,32.3,1111122 
SCCF RECON,ioos:station:SCCF:51:1,2010-02-06T01:00:00Z,26.5545,-82.1715,1.935,32.18,1111122 
SCCF RECON,ioos:station:SCCF:51:1,2010-02-06T02:00:00Z,26.5545,-82.1715,1.853,32.07,1111122 
SCCF RECON,ioos:station:SCCF:51:1,2010-02-06T03:00:00Z,26.5545,-82.1715,1.76,32.05,1111122 
SCCF RECON,ioos:station:SCCF:51:1,2010-02-06T04:00:00Z,26.5545,-82.1715,1.685,32.03,1111122 
SCCF RECON,ioos:station:SCCF:51:1,2010-02-06T05:00:00Z,26.5545,-82.1715,1.6,32.01,1111122 
SCCF RECON,ioos:station:SCCF:51:1,2010-02-06T06:00:00Z,26.5545,-82.1715,1.523,31.93,1111122 
SCCF RECON,ioos:station:SCCF:51:1,2010-02-06T07:00:00Z,26.5545,-82.1715,1.485,31.97,1111122 
SCCF RECON,ioos:station:SCCF:51:1,2010-02-06T08:00:00Z,26.5545,-82.1715,1.488,32.01,1111122 
SCCF RECON,ioos:station:SCCF:51:1,2010-02-06T09:00:00Z,26.5545,-82.1715,1.539,32.08,1111122 
SCCF RECON,ioos:station:SCCF:51:1,2010-02-06T10:00:00Z,26.5545,-82.1715,1.607,32.31,1111122 
SCCF RECON,ioos:station:SCCF:51:1,2010-02-06T11:00:00Z,26.5545,-82.1715,1.68,32.52,1111122 
SCCF RECON,ioos:station:SCCF:51:1,2010-02-06T12:00:00Z,26.5545,-82.1715,1.741,32.66,1111122 
SCCF RECON,ioos:station:SCCF:51:1,2010-02-06T13:00:00Z,26.5545,-82.1715,1.786,32.48,1111122 
SCCF RECON,ioos:station:SCCF:51:1,2010-02-06T14:00:00Z,26.5545,-82.1715,1.8,32.5,1111122 
SCCF RECON,ioos:station:SCCF:51:1,2010-02-06T15:00:00Z,26.5545,-82.1715,1.793,32.54,1111122 
SCCF RECON,ioos:station:SCCF:51:1,2010-02-06T16:00:00Z,26.5545,-82.1715,1.809,32.86,1111122 
SCCF RECON,ioos:station:SCCF:51:1,2010-02-06T17:00:00Z,26.5545,-82.1715,1.828,33.05,1111122 
SCCF RECON,ioos:station:SCCF:51:1,2010-02-06T18:00:00Z,26.5545,-82.1715,1.845,33.05,1111122 
SCCF RECON,ioos:station:SCCF:51:1,2010-02-06T19:00:00Z,26.5545,-82.1715,1.875,33.55,1111122 
SCCF RECON,ioos:station:SCCF:51:1,2010-02-06T20:00:00Z,26.5545,-82.1715,1.905,33.23,1111122 
SCCF RECON,ioos:station:SCCF:51:1,2010-02-06T21:00:00Z,26.5545,-82.1715,1.943,33.3,1111122 
SCCF RECON,ioos:station:SCCF:51:1,2010-02-06T22:00:00Z,26.5545,-82.1715,1.967,33.33,1111122 
SCCF RECON,ioos:station:SCCF:51:1,2010-02-06T23:00:00Z,26.5545,-82.1715,1.972,33.33,1111122 
SCCF RECON,ioos:station:SCCF:51:1,2010-02-07T00:00:00Z,26.5545,-82.1715,1.955,33.57,1111122 
SCCF RECON,ioos:station:SCCF:51:1,2010-02-07T01:00:00Z,26.5545,-82.1715,1.91,33.99,1111122 
SCCF RECON,ioos:station:SCCF:51:1,2010-02-07T02:00:00Z,26.5545,-82.1715,1.843,33.99,1111122 
SCCF RECON,ioos:station:SCCF:51:1,2010-02-07T03:00:00Z,26.5545,-82.1715,1.756,34.02,1111122 
SCCF RECON,ioos:station:SCCF:51:1,2010-02-07T04:00:00Z,26.5545,-82.1715,1.675,33.63,1111122 
SCCF RECON,ioos:station:SCCF:51:1,2010-02-07T05:00:00Z,26.5545,-82.1715,1.595,33.47,1111122 
SCCF RECON,ioos:station:SCCF:51:1,2010-02-07T06:00:00Z,26.5545,-82.1715,1.519,33.34,1111122 
SCCF RECON,ioos:station:SCCF:51:1,2010-02-07T07:00:00Z,26.5545,-82.1715,1.437,33.37,1111122 
SCCF RECON,ioos:station:SCCF:51:1,2010-02-07T08:00:00Z,26.5545,-82.1715,1.381,33.24,1111122 
SCCF RECON,ioos:station:SCCF:51:1,2010-02-07T09:00:00Z,26.5545,-82.1715,1.353,33.08,1111122 
SCCF RECON,ioos:station:SCCF:51:1,2010-02-07T10:00:00Z,26.5545,-82.1715,1.38,33.21,1111122 
SCCF RECON,ioos:station:SCCF:51:1,2010-02-07T11:00:00Z,26.5545,-82.1715,1.422,33.38,1111122 
SCCF RECON,ioos:station:SCCF:51:1,2010-02-07T12:00:00Z,26.5545,-82.1715,1.497,33.48,1111122 
SCCF RECON,ioos:station:SCCF:51:1,2010-02-07T13:00:00Z,26.5545,-82.1715,1.552,33.73,1111122 
SCCF RECON,ioos:station:SCCF:51:1,2010-02-07T14:00:00Z,26.5545,-82.1715,1.593,33.85,1111122 
SCCF RECON,ioos:station:SCCF:51:1,2010-02-07T15:00:00Z,26.5545,-82.1715,1.63,33.89,1111122 
SCCF RECON,ioos:station:SCCF:51:1,2010-02-07T16:00:00Z,26.5545,-82.1715,1.669,33.88,1111122 
SCCF RECON,ioos:station:SCCF:51:1,2010-02-07T17:00:00Z,26.5545,-82.1715,1.679,33.89,1111122 
SCCF RECON,ioos:station:SCCF:51:1,2010-02-07T18:00:00Z,26.5545,-82.1715,1.688,33.9,1111122 
SCCF RECON,ioos:station:SCCF:51:1,2010-02-07T19:00:00Z,26.5545,-82.1715,1.702,33.93,1111122 
SCCF RECON,ioos:station:SCCF:51:1,2010-02-07T20:00:00Z,26.5545,-82.1715,1.725,34.05,1111122 
SCCF RECON,ioos:station:SCCF:51:1,2010-02-07T21:00:00Z,26.5545,-82.1715,1.758,33.91,1111122 
SCCF RECON,ioos:station:SCCF:51:1,2010-02-07T22:00:00Z,26.5545,-82.1715,1.811,33.83,1111122 
SCCF RECON,ioos:station:SCCF:51:1,2010-02-07T23:00:00Z,26.5545,-82.1715,1.857,34.03,1111122 
SCCF RECON,ioos:station:SCCF:51:1,2010-02-08T00:00:00Z,26.5545,-82.1715,1.913,33.8,1111122 
SCCF RECON,ioos:station:SCCF:51:1,2010-02-08T01:00:00Z,26.5545,-82.1715,1.922,33.74,1111122 
SCCF RECON,ioos:station:SCCF:51:1,2010-02-08T02:00:00Z,26.5545,-82.1715,1.883,33.46,1111122 
SCCF RECON,ioos:station:SCCF:51:1,2010-02-08T03:00:00Z,26.5545,-82.1715,1.812,33.52,1111122 
SCCF RECON,ioos:station:SCCF:51:1,2010-02-08T04:00:00Z,26.5545,-82.1715,1.733,33.44,1111122 
SCCF RECON,ioos:station:SCCF:51:1,2010-02-08T05:00:00Z,26.5545,-82.1715,1.658,33.35,1111122 
SCCF RECON,ioos:station:SCCF:51:1,2010-02-08T06:00:00Z,26.5545,-82.1715,1.575,33.34,1111122 
SCCF RECON,ioos:station:SCCF:51:1,2010-02-08T07:00:00Z,26.5545,-82.1715,1.487,33.22,1111122 
SCCF RECON,ioos:station:SCCF:51:1,2010-02-08T08:00:00Z,26.5545,-82.1715,1.401,33.05,1111122 
SCCF RECON,ioos:station:SCCF:51:1,2010-02-08T09:00:00Z,26.5545,-82.1715,1.346,33.04,1111122 
SCCF RECON,ioos:station:SCCF:51:1,2010-02-08T10:00:00Z,26.5545,-82.1715,1.362,33.24,1111122 
SCCF RECON,ioos:station:SCCF:51:1,2010-02-08T11:00:00Z,26.5545,-82.1715,1.426,33.22,1111122 
SCCF RECON,ioos:station:SCCF:51:1,2010-02-08T12:00:00Z,26.5545,-82.1715,1.524,33.54,1111122 
SCCF RECON,ioos:station:SCCF:51:1,2010-02-08T13:00:00Z,26.5545,-82.1715,1.601,33.85,1111122 
SCCF RECON,ioos:station:SCCF:51:1,2010-02-08T14:00:00Z,26.5545,-82.1715,1.659,34.03,1111122 
SCCF RECON,ioos:station:SCCF:51:1,2010-02-08T15:00:00Z,26.5545,-82.1715,1.71,33.91,1111122 
SCCF RECON,ioos:station:SCCF:51:1,2010-02-08T16:00:00Z,26.5545,-82.1715,1.756,33.89,1111122 
SCCF RECON,ioos:station:SCCF:51:1,2010-02-08T17:00:00Z,26.5545,-82.1715,1.812,33.79,1111122 
SCCF RECON,ioos:station:SCCF:51:1,2010-02-08T18:00:00Z,26.5545,-82.1715,1.819,33.87,1111122 
SCCF RECON,ioos:station:SCCF:51:1,2010-02-08T19:00:00Z,26.5545,-82.1715,1.814,33.86,1111122 
SCCF RECON,ioos:station:SCCF:51:1,2010-02-08T20:00:00Z,26.5545,-82.1715,1.813,33.96,1111122 
SCCF RECON,ioos:station:SCCF:51:1,2010-02-08T21:00:00Z,26.5545,-82.1715,1.86,34.12,1111122 
SCCF RECON,ioos:station:SCCF:51:1,2010-02-08T22:00:00Z,26.5545,-82.1715,1.919,34.03,1111122 
SCCF RECON,ioos:station:SCCF:51:1,2010-02-08T23:00:00Z,26.5545,-82.1715,1.977,34.13,1111122 
SCCF RECON,ioos:station:SCCF:51:1,2010-02-09T00:00:00Z,26.5545,-82.1715,2.021,34.13,1111122 
SCCF RECON,ioos:station:SCCF:51:1,2010-02-09T01:00:00Z,26.5545,-82.1715,2.028,34.18,1111122 
SCCF RECON,ioos:station:SCCF:51:1,2010-02-09T02:00:00Z,26.5545,-82.1715,2.015,34.14,1111122 
SCCF RECON,ioos:station:SCCF:51:1,2010-02-09T03:00:00Z,26.5545,-82.1715,1.986,34.14,1111122 
SCCF RECON,ioos:station:SCCF:51:1,2010-02-09T04:00:00Z,26.5545,-82.1715,1.94,34.14,1111122 
SCCF RECON,ioos:station:SCCF:51:1,2010-02-09T05:00:00Z,26.5545,-82.1715,1.85,33.99,1111122 
SCCF RECON,ioos:station:SCCF:51:1,2010-02-09T06:00:00Z,26.5545,-82.1715,1.74,33.8,1111122 
SCCF RECON,ioos:station:SCCF:51:1,2010-02-09T07:00:00Z,26.5545,-82.1715,1.627,33.75,1111122 
SCCF RECON,ioos:station:SCCF:51:1,2010-02-09T08:00:00Z,26.5545,-82.1715,1.508,33.61,1111122 
SCCF RECON,ioos:station:SCCF:51:1,2010-02-09T09:00:00Z,26.5545,-82.1715,1.415,33.52,1111122 
SCCF RECON,ioos:station:SCCF:51:1,2010-02-09T10:00:00Z,26.5545,-82.1715,1.353,33.62,1111122 
SCCF RECON,ioos:station:SCCF:51:1,2010-02-09T11:00:00Z,26.5545,-82.1715,1.364,33.56,1111122 
SCCF RECON,ioos:station:SCCF:51:1,2010-02-09T12:00:00Z,26.5545,-82.1715,1.456,33.58,1111122 
SCCF RECON,ioos:station:SCCF:51:1,2010-02-09T13:00:00Z,26.5545,-82.1715,1.583,33.7,1111122 
SCCF RECON,ioos:station:SCCF:51:1,2010-02-09T14:00:00Z,26.5545,-82.1715,1.695,33.97,1111122 
SCCF RECON,ioos:station:SCCF:51:1,2010-02-09T15:00:00Z,26.5545,-82.1715,1.77,33.95,1111122 
SCCF RECON,ioos:station:SCCF:51:1,2010-02-09T16:00:00Z,26.5545,-82.1715,1.839,33.9,1111122 
SCCF RECON,ioos:station:SCCF:51:1,2010-02-09T17:00:00Z,26.5545,-82.1715,1.876,34.11,1111122 
SCCF RECON,ioos:station:SCCF:51:1,2010-02-09T18:00:00Z,26.5545,-82.1715,1.907,34.19,1111122 
SCCF RECON,ioos:station:SCCF:51:1,2010-02-09T19:00:00Z,26.5545,-82.1715,1.9,34.17,1111122 
SCCF RECON,ioos:station:SCCF:51:1,2010-02-09T20:00:00Z,26.5545,-82.1715,1.889,34.14,1111122 
SCCF RECON,ioos:station:SCCF:51:1,2010-02-09T21:00:00Z,26.5545,-82.1715,1.916,33.88,1111122 
SCCF RECON,ioos:station:SCCF:51:1,2010-02-09T22:00:00Z,26.5545,-82.1715,1.98,34.12,1111122 
SCCF RECON,ioos:station:SCCF:51:1,2010-02-09T23:00:00Z,26.5545,-82.1715,2.041,34.05,1111122 
SCCF RECON,ioos:station:SCCF:51:1,2010-02-10T00:00:00Z,26.5545,-82.1715,2.096,33.94,1111122 
SCCF RECON,ioos:station:SCCF:51:1,2010-02-10T01:00:00Z,26.5545,-82.1715,2.147,34.21,1111122 
SCCF RECON,ioos:station:SCCF:51:1,2010-02-10T02:00:00Z,26.5545,-82.1715,2.171,34.17,1111122 
SCCF RECON,ioos:station:SCCF:51:1,2010-02-10T03:00:00Z,26.5545,-82.1715,2.188,34.26,1111122 
SCCF RECON,ioos:station:SCCF:51:1,2010-02-10T04:00:00Z,26.5545,-82.1715,2.12,34.25,1111122 
SCCF RECON,ioos:station:SCCF:51:1,2010-02-10T05:00:00Z,26.5545,-82.1715,2.015,34.16,1111122 
SCCF RECON,ioos:station:SCCF:51:1,2010-02-10T06:00:00Z,26.5545,-82.1715,1.885,34.04,1111122 
SCCF RECON,ioos:station:SCCF:51:1,2010-02-10T07:00:00Z,26.5545,-82.1715,1.777,34.07,1111122 
SCCF RECON,ioos:station:SCCF:51:1,2010-02-10T08:00:00Z,26.5545,-82.1715,1.652,33.76,1111122 
SCCF RECON,ioos:station:SCCF:51:1,2010-02-10T09:00:00Z,26.5545,-82.1715,1.56,33.81,1111122 
SCCF RECON,ioos:station:SCCF:51:1,2010-02-10T10:00:00Z,26.5545,-82.1715,1.486,33.58,1111122 
SCCF RECON,ioos:station:SCCF:51:1,2010-02-10T11:00:00Z,26.5545,-82.1715,1.433,33.47,1111122 
SCCF RECON,ioos:station:SCCF:51:1,2010-02-10T12:00:00Z,26.5545,-82.1715,1.434,33.45,1111122 
SCCF RECON,ioos:station:SCCF:51:1,2010-02-10T13:00:00Z,26.5545,-82.1715,1.458,33.49,1111122 
SCCF RECON,ioos:station:SCCF:51:1,2010-02-10T14:00:00Z,26.5545,-82.1715,1.503,33.62,1111122 
SCCF RECON,ioos:station:SCCF:51:1,2010-02-10T15:00:00Z,26.5545,-82.1715,1.547,33.65,1111122 
SCCF RECON,ioos:station:SCCF:51:1,2010-02-10T16:00:00Z,26.5545,-82.1715,1.614,34.09,1111122 
SCCF RECON,ioos:station:SCCF:51:1,2010-02-10T17:00:00Z,26.5545,-82.1715,1.656,34.1,1111122 
SCCF RECON,ioos:station:SCCF:51:1,2010-02-10T18:00:00Z,26.5545,-82.1715,1.657,34.1,1111122 
SCCF RECON,ioos:station:SCCF:51:1,2010-02-10T19:00:00Z,26.5545,-82.1715,1.621,34.09,1111122 
SCCF RECON,ioos:station:SCCF:51:1,2010-02-10T20:00:00Z,26.5545,-82.1715,1.589,34.09,1111122 
SCCF RECON,ioos:station:SCCF:51:1,2010-02-10T21:00:00Z,26.5545,-82.1715,1.591,34.04,1111122 
SCCF RECON,ioos:station:SCCF:51:1,2010-02-10T22:00:00Z,26.5545,-82.1715,1.633,33.79,1111122 
SCCF RECON,ioos:station:SCCF:51:1,2010-02-10T23:00:00Z,26.5545,-82.1715,1.697,33.78,1111122 
SCCF RECON,ioos:station:SCCF:51:1,2010-02-11T00:00:00Z,26.5545,-82.1715,1.763,33.95,1111122 
SCCF RECON,ioos:station:SCCF:51:1,2010-02-11T01:00:00Z,26.5545,-82.1715,1.835,33.8,1111122 
SCCF RECON,ioos:station:SCCF:51:1,2010-02-11T02:00:00Z,26.5545,-82.1715,1.9,34.19,1111122 
SCCF RECON,ioos:station:SCCF:51:1,2010-02-11T03:00:00Z,26.5545,-82.1715,1.95,34.24,1111122 
SCCF RECON,ioos:station:SCCF:51:1,2010-02-11T04:00:00Z,26.5545,-82.1715,1.937,34.04,1111122 
SCCF RECON,ioos:station:SCCF:51:1,2010-02-11T05:00:00Z,26.5545,-82.1715,1.875,34.2,1111122 
SCCF RECON,ioos:station:SCCF:51:1,2010-02-11T06:00:00Z,26.5545,-82.1715,1.782,34.3,1111122 
SCCF RECON,ioos:station:SCCF:51:1,2010-02-11T07:00:00Z,26.5545,-82.1715,1.674,34.23,1111122 
SCCF RECON,ioos:station:SCCF:51:1,2010-02-11T08:00:00Z,26.5545,-82.1715,1.578,34.18,1111122 
SCCF RECON,ioos:station:SCCF:51:1,2010-02-11T09:00:00Z,26.5545,-82.1715,1.479,34.16,1111122 
SCCF RECON,ioos:station:SCCF:51:1,2010-02-11T10:00:00Z,26.5545,-82.1715,1.381,34.13,1111122 
SCCF RECON,ioos:station:SCCF:51:1,2010-02-11T11:00:00Z,26.5545,-82.1715,1.304,34.1,1111122 
SCCF RECON,ioos:station:SCCF:51:1,2010-02-11T12:00:00Z,26.5545,-82.1715,1.273,33.99,1111122 
SCCF RECON,ioos:station:SCCF:51:1,2010-02-11T13:00:00Z,26.5545,-82.1715,1.327,33.93,1111122 
SCCF RECON,ioos:station:SCCF:51:1,2010-02-11T14:00:00Z,26.5545,-82.1715,1.41,33.91,1111122 
SCCF RECON,ioos:station:SCCF:51:1,2010-02-11T15:00:00Z,26.5545,-82.1715,1.523,34.18,1111122 
SCCF RECON,ioos:station:SCCF:51:1,2010-02-11T16:00:00Z,26.5545,-82.1715,1.622,33.92,1111122 
SCCF RECON,ioos:station:SCCF:51:1,2010-02-11T17:00:00Z,26.5545,-82.1715,1.696,33.8,1111122 
SCCF RECON,ioos:station:SCCF:51:1,2010-02-11T18:00:00Z,26.5545,-82.1715,1.727,33.76,1111122 